STARLINK-30765, 58119

Orbit data source: Space-Track

STARLINK-30765, 58119 is a payload satellite owned by SpaceX/Seattle (US) in LEO that was launched on Sun, 22 Oct 2023 UTC via an FALCON 9 launch vehicle from the Air Force Eastern Test Range (AFETR). Payload-class satellites include a variety of spacecraft equipped with specific instruments for various scientific and technological missions. These include communications satellites like Starlink; space stations such as the ISS; scientific satellites like the Hubble; Earth observation satellites from companies like Planet Labs, Umbra, and HawkEye 360; GPS; miniature CubeSats for education and research; and military/defense satellites.

Loading next visibility...
Identifier
58119, 2023-162B
Orbit
LEO
Country
Flag of USUS
Related business
Manufacturer
SpaceX/Seattle
Mission
Operational Commercial Communications
Bus & Motor
STARLINK V2M, Unknown motor
Mass
730 kg wet, ~700 kg dry
Launch date (UTC)
2023-10-22 (2 years ago)
Launch vehicle
FALCON 9
Launch site
Air Force Eastern Test Range (AFETR)
Object type
Payload
Rocket body
Debris
Shape & HBR
Box + 2 Pan, 17.7 m
Radar Cross Section
33.884 m², Large (>1 m²)

Expand to show TLE details & history
Last TLE update: 1 day ago

TLE from 1 day ago
0 STARLINK-30765
1 58119U 23162B   25348.37862085 -.00002665  00000-0 -18243-3 0  9991
2 58119  43.0053 236.9253 0001888 264.3976  95.6651 15.02506909119463
Epoch: 2025-12-14T09:05Z
TLE epoch observation values (Epoch: 2025-12-14T09:05:12.841Z)
Latitude
-0.00002°
Longitude
17.32938°
Altitude
559.077 km
Speed
7.584 km/s
True Right ascension
15h 47m 42s
True Declination
0° 00' 00"
Sunlit
Object was in daylight at epoch
Visualization orbit readout
Latitude
Unknown
Longitude
Unknown
Altitude
Unknown
Speed
Unknown
Apparent Right ascension
Unknown
Apparent Declination
Unknown
Sunlit
N/A
Visualization observer readout
Local Sidereal Time
13:24:35
Azimuth
Unknown
Elevation
Unknown
Doppler factor
Unknown
Orbital elements
Apogee altitude
562.402 km
Perigee altitude
559.782 km
Semi-major axis
6,939.229 km
Eccentricity
0.00019
Inclination
43.0053°
RAAN
236.9253°
Arg. of periapsis
264.3976°
True anomaly
95.68663°
Mean anomaly
95.6651°
Eccentric anomaly
95.67586°
Mean motion
3.75471 °/min
Orbital period
95.88 mins
BSTAR
-0.00018243
Loading maneuver chart data...
Computing Atmospheric mass density...
Loading historical data...
Loading historical data...
Loading historical data...
Loading historical data...
Loading historical data...
Loading historical data...
Loading historical data...

Documentation

Showing up to 5 results
|